Location: Vineburg
(38.2724°N, 122.4386°W)
Time: 23:05:47
(UTC+00:00)

Daily predictions for brighter satellites

Satellite Brightness Start Highest point End
(mag) Time Altitude Azimuth Time Altitude Azimuth Time Altitude Azimuth
ISS -0.6 12:20:29 14° NE 12:20:29 14° NE 12:21:03 10° NE
ALOS 3.0 12:18:22 10° NNE 12:22:03 50° NE 12:22:03 50° NE
Cosmos 2082 Rocket 2.5 12:33:02 51° NNW 12:33:02 51° NNW 12:37:38 10° NNE
Cosmos 1461 3.6 12:34:48 51° NE 12:35:05 52° NE 12:39:14 10° SE
Okean 3 Rocket 4.0 12:31:38 10° N 12:36:00 60° E 12:40:21 10° SSE
FENGYUN 3A 3.5 12:31:29 10° NNE 12:36:57 89° WNW 12:38:00 60° SSW
Meteor 1-31 Rocket 4.3 12:35:00 10° NNE 12:38:35 34° E 12:41:55 11° SSE
Meteor 2-15 Rocket 4.5 12:32:49 10° S 12:38:56 78° E 12:45:07 10° N
Meteor 2-3 Rocket 3.6 12:33:39 10° N 12:39:22 87° W 12:45:08 10° S
Cosmos 292 Rocket 4.1 12:36:40 23° N 12:39:36 63° ENE 12:44:21 10° SSE
SeaSat 1 2.3 12:36:27 10° SSE 12:41:23 87° ENE 12:42:38 52° NNW
Cosmos 1980 Rocket 2.2 12:39:24 17° NNW 12:43:52 84° ENE 12:49:33 10° SSE
Cosmos 1553 Rocket 4.0 12:40:34 10° S 12:46:58 85° E 12:53:22 10° N
Nadezhda 2 Rocket 4.4 12:41:22 10° N 12:47:43 74° W 12:54:05 10° S
Cosmos 2322 Rocket 4.5 12:48:08 10° N 12:52:31 22° NE 12:56:53 10° ESE
Cosmos 1842 Rocket 4.3 12:51:28 10° S 12:55:43 52° E 12:59:59 10° NNE
Cosmos 1833 Rocket 4.3 12:58:58 18° NNW 12:58:58 18° NNW 13:01:24 10° N
Cosmos 1452 Rocket 3.5 12:57:43 54° W 12:57:56 55° WSW 13:03:02 10° S
Cosmos 220 Rocket 4.5 12:54:06 10° NNW 12:58:26 62° ENE 13:02:47 10° SSE
Cosmos 2221 3.1 12:56:58 10° S 13:01:15 59° E 13:05:34 10° NNE
METEOR-M 4.0 12:56:19 10° N 13:01:39 72° WNW 13:06:07 15° SSW
H-2A R/B 1.9 13:00:27 10° S 13:04:50 75° WSW 13:09:09 10° NNW
Cosmos 1484 Rocket 4.4 13:01:27 10° N 13:02:56 22° N 13:02:56 22° N
Iridium 4 Rocket 3.6 13:04:35 39° SW 13:06:00 48° W 13:10:50 10° N
Cosmos 1697 Rocket 4.2 13:10:49 19° SSW 13:10:49 19° SSW 13:12:46 10° SSW
ADEOS 3.5 13:02:50 10° NNE 13:08:05 89° WNW 13:13:18 10° SSW
SL-16 R/B 3.5 13:06:49 10° N 13:12:09 40° ENE 13:17:26 10° SE
Cosmos 1110 Rocket 3.9 13:10:10 10° NNW 13:15:28 85° WSW 13:20:42 10° SSE
BREEZE M DEB (TANK) 4.3 13:14:56 12° N 13:16:12 14° NNE 13:18:43 10° NE
NOSS 2-2 (C) 3.0 13:15:04 35° SSW 13:16:24 78° ESE 13:19:57 10° NE
Cosmos 1869 4.4 13:18:16 28° NW 13:18:16 28° NW 13:20:36 10° N
SJ-12 3.8 13:14:34 10° NNE 13:18:40 88° W 13:22:43 10° SSW
Cosmos 2369 4.4 13:19:04 31° W 13:19:19 31° WSW 13:24:16 10° SSW
H-2A R/B 3.9 13:17:25 10° NNE 13:21:11 46° E 13:24:57 10° S
S3M 3.9 13:23:37 10° SSW 13:29:39 63° W 13:35:44 10° N
NOSS 2-2 (E) 3.2 13:31:20 33° WSW 13:32:27 48° NW 13:36:01 10° NNE
Meteor PRIRODA 3.7 13:34:13 10° NNE 13:37:56 84° E 13:41:39 10° S
YAOGAN 6 3.5 13:35:47 10° NNE 13:39:14 50° E 13:42:38 10° S
Cosmos 1689 Rocket 4.4 13:37:04 10° SE 13:39:27 25° ENE 13:41:52 10° NNE
COSMO-SKYMED 1 2.5 13:35:24 10° S 13:39:42 71° WSW 13:44:03 10° NNW
X-37B 2.3 13:40:49 16° NW 13:42:25 24° N 13:45:04 10° ENE
Cosmos 1745 Rocket 4.0 13:36:53 10° NNW 13:43:00 58° W 13:49:10 10° S
Cosmos 1269 Rocket 4.1 13:38:02 10° SSW 13:43:12 57° WNW 13:48:26 10° N
ATLAS CENTAUR R/B 2.2 13:40:51 10° NNW 13:44:49 52° ENE 13:49:02 10° SE
Lacrosse 5 4.4 13:48:19 10° N 13:49:06 10° NNE 13:49:52 10° NNE
Cosmos 1743 Rocket 3.5 13:48:47 10° NNW 13:53:15 72° W 13:57:41 10° S
Cosmos 1805 Rocket 4.3 13:49:54 10° N 13:54:18 58° E 13:58:42 10° SSE
ISS -1.8 13:53:27 14° NW 13:54:51 17° NNW 13:57:12 10° NNE
CZ-4B R/B 3.2 13:51:09 10° N 13:55:27 57° WNW 13:59:51 10° SSW
Cosmos 1709 Rocket 4.0 13:50:11 10° N 13:56:34 81° W 14:02:56 10° S
ALOS 4.0 13:57:47 10° NW 13:59:52 13° WNW 14:00:34 13° WNW
SL-27 R/B 2.6 13:59:41 10° SSW 14:03:04 50° WNW 14:06:32 10° N
Cosmos 1862 3.9 14:02:26 10° NNW 14:06:10 36° W 14:09:53 10° SSW
MOS 1 Rocket 3.7 14:02:47 10° SSW 14:06:40 34° W 14:10:37 10° NNW
CZ-4B R/B 2.3 14:04:14 10° SSW 14:07:02 26° W 14:09:48 10° NW
Cosmos 1933 3.9 14:06:33 10° S 14:10:29 62° E 14:14:28 10° NNE
Cosmos 2360 Rocket 3.1 14:06:26 10° NNW 14:12:01 54° ENE 14:17:32 10° SE
Meteor 1-31 Rocket 4.4 14:10:20 10° NNW 14:12:40 15° WNW 14:14:58 10° WSW
ERS-2 2.1 14:12:00 10° S 14:15:33 61° WSW 14:19:10 10° NNW
PSLV R/B 3.8 14:13:28 10° N 14:17:32 79° WNW 14:21:29 10° SSW
NOSS 2-2 (D) 4.4 14:15:44 10° W 14:18:25 21° NW 14:21:16 10° N
USA 215 3.5 14:12:48 10° NE 14:19:21 76° SE 14:25:54 10° SW
SeaSat 1 4.3 14:18:53 10° WSW 14:19:23 10° WSW 14:19:54 10° W
PSLV R/B 4.1 14:16:12 10° S 14:20:20 54° W 14:24:28 10° NNW
Cosmos 2315 Rocket 4.2 14:14:23 10° SSW 14:20:23 49° W 14:26:23 10° N
CZ-4B R/B 4.5 14:16:06 10° NNE 14:21:17 46° E 14:26:21 10° S
Lacrosse 4 Rocket 3.9 14:18:02 10° N 14:21:37 23° NE 14:25:07 10° ESE
Meteor 1-4 Rocket 3.9 14:19:54 10° WSW 14:22:44 20° WNW 14:25:33 10° NNW
Cosmos 1606 3.3 14:19:44 10° SW 14:23:17 35° W 14:26:54 10° N
SAR-Lupe-4 3.7 14:21:51 10° S 14:25:20 53° W 14:28:51 10° NNW
